• In Hungary
  • List of Countries
  • For 7 days
  • Water Temperature
  • Satellite Maps
  • Weather Map
  • News
  • Weather Widgets
  • user-avatar
    Login

    Hourly Weather Baku

    Today, 26 September, Tuesday

    Time Temperature Precipitation Wind Pressure Humidity
    00:00 +22°C° 0 mm 11 mps 764 mmHg 66%
    01:00 +21°C° 0 mm 10 mps 764 mmHg 67%
    02:00 +21°C° 0 mm 10 mps 764 mmHg 68%
    03:00 +21°C° 0 mm 8 mps 764 mmHg 68%
    04:00 +21°C° 0 mm 8 mps 764 mmHg 69%
    05:00 +21°C° 0 mm 8 mps 764 mmHg 69%
    06:00 +21°C° 0 mm 8 mps 764 mmHg 69%
    07:00 +21°C° 0 mm 7 mps 764 mmHg 67%
    08:00 +22°C° 0 mm 7 mps 764 mmHg 64%
    09:00 +22°C° 0 mm 7 mps 764 mmHg 61%
    10:00 +23°C° 0 mm 7 mps 764 mmHg 59%
    11:00 +23°C° 0 mm 7 mps 764 mmHg 57%
    12:00 +23°C° 0 mm 7 mps 764 mmHg 55%
    13:00 +23°C° 0 mm 7 mps 764 mmHg 55%
    14:00 +23°C° 0 mm 7 mps 764 mmHg 55%
    15:00 +23°C° 0 mm 7 mps 764 mmHg 55%
    16:00 +22°C° 0 mm 8 mps 764 mmHg 56%
    17:00 +22°C° 0 mm 8 mps 764 mmHg 57%
    18:00 +21°C° 0 mm 8 mps 765 mmHg 59%
    19:00 +21°C° 0 mm 8 mps 765 mmHg 60%
    20:00 +21°C° 0 mm 8 mps 765 mmHg 61%
    21:00 +21°C° 0 mm 8 mps 765 mmHg 62%
    22:00 +20°C° 0 mm 7 mps 765 mmHg 62%
    23:00 +20°C° 0 mm 7 mps 765 mmHg 63%

    Tomorrow, 27 September, Wednesday

    Time Temperature Precipitation Wind Pressure Humidity
    00:00 +20°C° 0 mm 7 mps 765 mmHg 64%
    01:00 +20°C° 0 mm 7 mps 764 mmHg 63%
    02:00 +20°C° 0 mm 7 mps 764 mmHg 63%
    03:00 +20°C° 0 mm 6 mps 764 mmHg 62%
    04:00 +20°C° 0.1 mm 6 mps 764 mmHg 63%
    05:00 +20°C° 0.1 mm 6 mps 764 mmHg 64%
    06:00 +20°C° 0.1 mm 5 mps 764 mmHg 65%
    07:00 +19°C° 0.6 mm 5 mps 764 mmHg 67%
    08:00 +19°C° 0.6 mm 5 mps 764 mmHg 69%
    09:00 +19°C° 0.6 mm 6 mps 764 mmHg 71%
    10:00 +19°C° 0.3 mm 6 mps 764 mmHg 71%
    11:00 +19°C° 0.3 mm 6 mps 764 mmHg 70%
    12:00 +19°C° 0.3 mm 6 mps 764 mmHg 70%
    13:00 +19°C° 0.3 mm 6 mps 764 mmHg 68%
    14:00 +19°C° 0.3 mm 6 mps 764 mmHg 67%
    15:00 +19°C° 0.3 mm 6 mps 764 mmHg 66%
    16:00 +19°C° 0.2 mm 6 mps 764 mmHg 68%
    17:00 +19°C° 0.2 mm 6 mps 764 mmHg 70%
    18:00 +18°C° 0.2 mm 7 mps 764 mmHg 72%
    19:00 +18°C° 0.4 mm 7 mps 765 mmHg 73%
    20:00 +18°C° 0.4 mm 7 mps 765 mmHg 74%
    21:00 +18°C° 0.4 mm 7 mps 765 mmHg 74%
    22:00 +18°C° 2 mm 8 mps 765 mmHg 75%
    23:00 +17°C° 2 mm 8 mps 765 mmHg 76%

    Day after tomorrow, 28 September, Thursday

    Time Temperature Precipitation Wind Pressure Humidity
    00:00 +17°C° 2 mm 8 mps 765 mmHg 76%
    01:00 +17°C° 0.7 mm 8 mps 765 mmHg 77%
    02:00 +17°C° 0.7 mm 8 mps 765 mmHg 77%
    03:00 +17°C° 0.7 mm 8 mps 765 mmHg 77%
    04:00 +17°C° 0.7 mm 9 mps 765 mmHg 77%
    05:00 +17°C° 0.7 mm 9 mps 766 mmHg 77%
    06:00 +17°C° 0.7 mm 9 mps 766 mmHg 77%
    07:00 +17°C° 0.8 mm 10 mps 766 mmHg 77%
    08:00 +16°C° 0.8 mm 10 mps 767 mmHg 76%
    09:00 +16°C° 0.8 mm 10 mps 767 mmHg 75%
    10:00 +16°C° 0.5 mm 10 mps 767 mmHg 75%
    11:00 +16°C° 0.5 mm 10 mps 767 mmHg 75%
    12:00 +16°C° 0.5 mm 10 mps 768 mmHg 74%
    13:00 +16°C° 0.4 mm 10 mps 768 mmHg 74%
    14:00 +16°C° 0.4 mm 10 mps 768 mmHg 74%
    15:00 +16°C° 0.4 mm 10 mps 768 mmHg 74%
    16:00 +16°C° 0.2 mm 9 mps 768 mmHg 72%
    17:00 +16°C° 0.2 mm 9 mps 768 mmHg 71%
    18:00 +16°C° 0.2 mm 9 mps 768 mmHg 69%
    19:00 +17°C° 0 mm 9 mps 768 mmHg 67%
    20:00 +17°C° 0 mm 8 mps 769 mmHg 65%
    21:00 +17°C° 0 mm 8 mps 769 mmHg 62%
    22:00 +17°C° 0 mm 7 mps 768 mmHg 62%
    23:00 +17°C° 0 mm 7 mps 768 mmHg 62%

    29 September, Friday

    Time Temperature Precipitation Wind Pressure Humidity
    00:00 +17°C° 0 mm 7 mps 768 mmHg 61%
    01:00 +19°C° 0 mm 6 mps 768 mmHg 61%
    02:00 +19°C° 0 mm 6 mps 768 mmHg 61%
    03:00 +19°C° 0 mm 5 mps 768 mmHg 61%
    04:00 +19°C° 0 mm 5 mps 767 mmHg 61%
    05:00 +19°C° 0 mm 5 mps 767 mmHg 61%
    06:00 +19°C° 0 mm 5 mps 767 mmHg 61%
    07:00 +19°C° 0 mm 5 mps 767 mmHg 60%
    08:00 +19°C° 0 mm 4 mps 767 mmHg 59%
    09:00 +20°C° 0 mm 4 mps 767 mmHg 57%
    10:00 +20°C° 0.1 mm 4 mps 767 mmHg 58%
    11:00 +20°C° 0.1 mm 4 mps 767 mmHg 58%
    12:00 +20°C° 0.1 mm 4 mps 766 mmHg 58%
    13:00 +20°C° 0.2 mm 5 mps 766 mmHg 61%
    14:00 +20°C° 0.2 mm 5 mps 766 mmHg 63%
    15:00 +20°C° 0.2 mm 5 mps 765 mmHg 66%
    16:00 +20°C° 0.2 mm 5 mps 765 mmHg 67%
    17:00 +20°C° 0.2 mm 5 mps 765 mmHg 68%
    18:00 +20°C° 0.2 mm 5 mps 765 mmHg 69%
    19:00 +20°C° 0.3 mm 5 mps 765 mmHg 67%
    20:00 +21°C° 0.3 mm 5 mps 765 mmHg 65%
    21:00 +21°C° 0.3 mm 5 mps 765 mmHg 63%
    22:00 +21°C° 0.2 mm 4 mps 765 mmHg 61%
    23:00 +21°C° 0.2 mm 4 mps 764 mmHg 59%

    30 September, Saturday

    Time Temperature Precipitation Wind Pressure Humidity
    00:00 +21°C° 0.2 mm 4 mps 764 mmHg 56%
    01:00 +21°C° 0 mm 3 mps 763 mmHg 56%
    02:00 +21°C° 0 mm 3 mps 763 mmHg 55%
    03:00 +21°C° 0 mm 3 mps 763 mmHg 54%
    04:00 +21°C° 0 mm 4 mps 763 mmHg 55%
    05:00 +21°C° 0 mm 4 mps 763 mmHg 56%
    06:00 +21°C° 0 mm 4 mps 762 mmHg 57%
    07:00 +22°C° 0 mm 5 mps 762 mmHg 57%
    08:00 +23°C° 0 mm 6 mps 762 mmHg 58%
    09:00 +23°C° 0 mm 7 mps 762 mmHg 58%
    10:00 +24°C° 0 mm 7 mps 762 mmHg 56%
    11:00 +24°C° 0 mm 7 mps 761 mmHg 54%
    12:00 +26°C° 0 mm 7 mps 761 mmHg 52%
    13:00 +26°C° 0 mm 7 mps 760 mmHg 52%
    14:00 +26°C° 0 mm 6 mps 760 mmHg 51%
    15:00 +26°C° 0 mm 6 mps 760 mmHg 51%
    16:00 +24°C° 0 mm 6 mps 759 mmHg 53%
    17:00 +25°C° 0 mm 5 mps 759 mmHg 55%
    18:00 +23°C° 0 mm 5 mps 759 mmHg 56%
    19:00 +23°C° 0.3 mm 4 mps 759 mmHg 58%
    20:00 +23°C° 0.3 mm 4 mps 759 mmHg 61%
    21:00 +22°C° 0.3 mm 3 mps 759 mmHg 63%
    22:00 +22°C° 0.7 mm 3 mps 759 mmHg 66%
    23:00 +22°C° 0.7 mm 3 mps 759 mmHg 69%

    1 October, Sunday

    Time Temperature Precipitation Wind Pressure Humidity
    00:00 +21°C° 0.7 mm 3 mps 758 mmHg 73%
    01:00 +21°C° 0.2 mm 2 mps 758 mmHg 72%
    02:00 +21°C° 0.2 mm 2 mps 758 mmHg 71%
    03:00 +21°C° 0.2 mm 2 mps 758 mmHg 71%
    04:00 +21°C° 0 mm 2 mps 759 mmHg 71%
    05:00 +21°C° 0 mm 3 mps 759 mmHg 71%
    06:00 +21°C° 0 mm 3 mps 759 mmHg 71%
    07:00 +22°C° 0 mm 4 mps 759 mmHg 68%
    08:00 +22°C° 0 mm 4 mps 760 mmHg 66%
    09:00 +23°C° 0 mm 5 mps 760 mmHg 63%
    10:00 +23°C° 0 mm 5 mps 760 mmHg 61%
    11:00 +25°C° 0 mm 5 mps 760 mmHg 58%
    12:00 +25°C° 0 mm 5 mps 760 mmHg 56%
    13:00 +25°C° 0 mm 5 mps 760 mmHg 57%
    14:00 +25°C° 0 mm 5 mps 760 mmHg 58%
    15:00 +25°C° 0 mm 5 mps 760 mmHg 59%
    16:00 +24°C° 0 mm 6 mps 760 mmHg 61%
    17:00 +23°C° 0 mm 6 mps 761 mmHg 62%
    18:00 +23°C° 0 mm 6 mps 761 mmHg 64%
    19:00 +23°C° 0 mm 6 mps 761 mmHg 62%
    20:00 +22°C° 0 mm 6 mps 761 mmHg 60%
    21:00 +22°C° 0 mm 6 mps 761 mmHg 58%
    22:00 +22°C° 0 mm 6 mps 761 mmHg 57%
    23:00 +22°C° 0 mm 6 mps 761 mmHg 56%
    Show more